User: anonymous   Login
Location: Banff
(51.1667°N, 115.5667°W)
Time: 18:02:10
(UTC+00:00)
Language:

SR - Orbit

View from above orbital plane
View from above orbital plane
View from above satellite
View from above satellite

Ground track
Ground track

The orbit data is extracted from the following two-line orbital elements,

1 00046U 60007B   20338.46474997  .00000271  00000-0  76606-4 0  9998
2 00046  66.6903 309.8609 0209647   3.1698 357.0680 14.49340882163600
Epoch (UTC): 03 December 2020 11:09:14
Eccentricity: 0.0209647
inclination: 66.6903°
perigee height: 579 km
apogee height: 877 km
right ascension of ascending node: 309.8609°
argument of perigee: 3.1698°
revolutions per day: 14.49340882
mean anomaly at epoch: 357.0680°
orbit number at epoch: 16360

The dashed part of the orbit path shows where the satellite is in the earth's shadow,  

DLR